MST,Max TemperatureF,Mean TemperatureF,Min TemperatureF,Max Dew PointF,MeanDew PointF,Min DewpointF,Max Humidity, Mean Humidity, Min Humidity, Max Sea Level PressureIn, Mean Sea Level PressureIn, Min Sea Level PressureIn, Max VisibilityMiles, Mean VisibilityMiles, Min VisibilityMiles, Max Wind SpeedMPH, Mean Wind SpeedMPH, Max Gust SpeedMPH,PrecipitationIn, CloudCover, Events, WindDirDegrees
2013-12-1,40,35,30,35,32,28,100,90,79,30.03,29.78,29.54,10,10,7,13,7,16,0.03,7,Rain,121
2013-12-2,35,27,18,34,27,15,100,92,84,29.97,29.62,29.50,10,5,0,23,11,30,0.01,7,Fog-Snow,68
2013-12-3,18,11,4,15,6,0,92,86,80,30.33,30.11,29.85,10,3,0,26,17,33,0.18,8,Snow,16
2013-12-4,4,-7,-18,0,-6,-21,87,80,72,30.45,30.32,30.16,10,6,2,18,12,22,0.01,6,Snow,311
2013-12-5,-8,-15,-23,-15,-22,-27,91,81,71,30.66,30.51,30.23,10,9,4,17,8,20,0.00,3,,293
2013-12-6,-13,-21,-29,-22,-27,-32,86,75,63,30.84,30.78,30.66,10,10,10,17,7,19,0.00,0,,282
2013-12-7,-15,-24,-34,-23,-27,-31,80,75,69,30.81,30.59,30.11,10,10,9,9,4,10,0.00,1,,253
2013-12-8,-1,-14,-27,-9,-20,-31,96,81,65,30.36,30.17,29.95,10,7,0,21,6,25,T,4,Fog-Snow,306
2013-12-9,22,1,-20,16,2,-23,91,82,73,30.27,29.88,29.66,10,5,0,40,11,49,0.06,5,Fog-Snow,291
2013-12-10,18,0,-19,15,3,-16,96,81,65,30.54,30.17,29.82,10,7,1,25,8,29,0.03,6,Snow,300
2013-12-11,19,4,-12,13,-2,-14,87,80,73,30.51,30.32,30.20,10,10,10,13,5,14,0.00,2,,87
2013-12-12,31,21,10,22,16,7,92,81,69,30.19,30.09,30.00,10,10,10,20,7,24,0.00,1,,121
2013-12-13,11,6,1,9,4,-1,95,86,76,30.33,30.15,29.91,10,7,1,13,8,15,0.01,7,Snow,95
2013-12-14,12,7,1,7,4,-1,95,84,73,30.34,30.18,29.99,10,10,8,15,7,17,0.00,4,,113
2013-12-15,40,25,9,31,20,5,92,78,63,30.02,29.92,29.85,10,10,10,25,9,33,0.00,2,,303
2013-12-16,34,29,23,30,27,17,100,88,75,30.29,30.11,30.02,10,5,0,17,10,22,0.07,8,Fog-Snow,278
2013-12-17,27,16,5,22,16,5,92,85,77,30.31,30.00,29.73,10,10,10,17,8,20,0.00,0,,87
2013-12-18,36,19,2,28,16,-3,86,76,66,30.19,29.89,29.68,10,8,2,24,13,30,0.02,5,Snow,353
2013-12-19,4,-6,-16,-2,-5,-16,92,82,72,30.40,30.22,30.05,10,4,1,17,6,20,0.10,6,Snow,352
2013-12-20,4,-5,-14,0,-6,-16,100,89,78,30.11,29.90,29.73,10,10,4,17,6,20,0.00,4,,103
2013-12-21,6,-3,-12,0,-2,-15,90,85,79,30.27,29.95,29.71,10,5,0,21,10,24,0.04,7,Fog-Snow,102
2013-12-22,1,-12,-26,-5,-12,-28,92,82,72,30.65,30.41,30.14,10,7,1,15,8,17,T,5,Snow,322
2013-12-23,22,-2,-27,21,-6,-31,100,89,77,30.61,30.18,29.77,10,7,2,24,13,27,0.10,4,Rain,113
2013-12-24,31,19,7,26,18,7,100,85,69,30.28,30.16,29.95,10,10,10,22,10,26,0.00,6,,298
2013-12-25,31,26,20,22,19,16,96,80,63,30.35,30.20,30.03,10,10,10,15,6,18,0.00,4,,261
2013-12-26,36,26,15,28,23,14,92,81,69,30.16,30.06,29.94,10,10,10,14,5,15,0.00,1,,246
2013-12-27,40,33,26,30,28,27,92,81,70,30.05,29.92,29.74,10,10,10,10,6,11,0.00,0,,196
2013-12-28,41,20,-1,31,2,-6,82,73,64,30.66,30.33,29.74,10,7,0,40,16,50,0.01,7,Fog-Snow,327
2013-12-29,14,5,-5,11,3,-8,95,86,76,30.60,30.21,29.86,10,10,10,16,9,19,T,7,,95
2013-12-30,20,13,6,14,5,1,88,81,73,30.37,30.18,29.90,10,8,1,24,12,30,0.03,8,Snow,25
2013-12-31,6,2,-2,2,-3,-6,95,87,79,30.28,30.11,29.97,10,4,0,22,14,25,0.17,8,Fog-Snow,104